Weather observations for the past three days for
Newark, Newark International Airport
Imperial (Metric)
Date Time (edt) Wind (mph) Vis. (mi.) Weather Sky Cond. Temperature (ºF) Relative Humidity Wind Chill (°F) Heat Index (°F) Pressure Precipitation (in)
Air Dwpt 6 hour altimeter (in) sea level (mb) 1 hr 3 hr 6 hr
Max. Min.
22 11:51 Calm 10.00 Mostly Cloudy FEW040 BKN250 91.9 71.1 51% 99 29.99 1015.4
22 10:51 Calm 10.00 Mostly Cloudy BKN250 91 71.1 52% 98 30 1015.8
22 09:51 W 7 10.00 Mostly Cloudy BKN250 88 70 55% 93 30.02 1016.6
22 08:51 SW 7 10.00 Mostly Cloudy BKN250 84 70 63% 88 30.03 1017.0
22 07:51 SW 8 10.00 Mostly Cloudy FEW070 BKN090 BKN200 82.9 70 82.9 79 65% 87 30.04 1017.3
22 06:51 SW 8 10.00 Mostly Cloudy SCT070 BKN200 81 69.1 67% 84 30.04 1017.3
22 05:51 SW 6 10.00 Mostly Cloudy FEW070 SCT120 BKN180 80.1 69.1 69% 83 30.04 1017.3
22 04:51 Calm 10.00 Mostly Cloudy SCT075 BKN100 BKN170 80.1 70 71% 83 30.04 1017.3
22 03:51 S 5 10.00 Overcast FEW070 BKN100 OVC150 79 69.1 72% 82 30.05 1017.5
22 02:51 S 5 10.00 Mostly Cloudy SCT090 BKN150 BKN200 79 71.1 77% 82 30.06 1017.9
22 01:51 Calm 10.00 Mostly Cloudy FEW070 BKN095 BKN140 BKN190 81 70 84.9 80.1 69% 84 30.07 1018.1
22 00:51 Calm 10.00 Mostly Cloudy FEW070 BKN130 BKN190 BKN250 80.1 71.1 74% 84 30.08 1018.6
21 23:51 NW 13 10.00 Mostly Cloudy FEW045 SCT070 BKN150 BKN250 82.9 70 65% 87 30.1 1019.2
21 22:51 E 3 10.00 Mostly Cloudy FEW050 SCT080 BKN160 BKN250 82.9 66.9 59% 86 30.09 1018.8
21 21:51 N 8 10.00 Mostly Cloudy FEW055 SCT150 BKN250 82 70 67% 86 30.09 1018.8
21 20:51 NE 8 10.00 Mostly Cloudy FEW060 FEW150 BKN250 82.9 71.1 67% 88 30.06 1018.0
21 19:51 N 17 10.00 Mostly Cloudy FEW060 FEW140 BKN250 84 71.1 100 84 65% 89 30.07 1018.2
21 18:51 W 9 10.00 Mostly Cloudy FEW060 FEW140 BKN250 97 64 34% 99 30.04 1017.4
21 17:51 W 12 G 23 10.00 Mostly Cloudy FEW060 FEW140 BKN250 97 64 34% 99 30.03 1016.9
21 16:51 W 10 G 20 10.00 Mostly Cloudy FEW060 FEW140 BKN250 99 64 32% 102 30.04 1017.3
21 15:51 SW 6 10.00 Partly Cloudy FEW060 FEW140 SCT250 99 64 32% 102 30.05 1017.7
21 14:51 SW 14 G 22 10.00 Partly Cloudy FEW060 FEW150 SCT250 98.1 64 33% 101 30.08 1018.5
21 13:51 W 8 10.00 Partly Cloudy FEW050 SCT250 98.1 64.9 99 82 34% 101 30.1 1019.3
21 12:51 Vrbl 7 G 17 10.00 A Few Clouds FEW050 FEW250 97 66 36% 101 30.13 1020.3
21 11:51 SW 7 10.00 A Few Clouds FEW050 FEW250 93.9 68 43% 98 30.15 1020.8
21 10:51 W 7 10.00 A Few Clouds FEW250 91 68 47% 95 30.15 1021.1
21 09:51 Vrbl 7 10.00 A Few Clouds FEW060 FEW250 90 66.9 47% 93 30.17 1021.5
21 08:51 W 8 10.00 A Few Clouds FEW060 FEW250 86 66 51% 88 30.18 1021.8
21 07:51 SW 7 10.00 A Few Clouds FEW060 FEW150 FEW250 82 64.9 82 77 56% 84 30.19 1022.2
21 06:51 SW 10 10.00 A Few Clouds FEW060 FEW150 FEW250 79 64 60% 81 30.19 1022.1
21 05:51 SW 9 10.00 A Few Clouds FEW060 FEW150 FEW250 77 64.9 66% 79 30.19 1022.2
21 04:51 SW 13 10.00 Partly Cloudy FEW150 SCT250 78.1 64.9 64% 80 30.19 1022.2
21 03:51 SW 12 10.00 Partly Cloudy FEW150 SCT250 79 64.9 62% 81 30.19 1022.2
21 02:51 SW 12 10.00 Partly Cloudy FEW150 SCT250 80.1 64.9 60% 82 30.19 1022.2
21 01:51 SW 14 10.00 Partly Cloudy SCT250 82 64.9 93 82 56% 84 30.2 1022.4
21 00:51 W 13 G 29 10.00 Partly Cloudy SCT250 84 64.9 53% 86 30.2 1022.6
20 23:51 SW 13 10.00 Partly Cloudy FEW180 SCT250 84.9 64.9 51% 87 30.21 1022.8
20 22:51 SW 10 G 22 10.00 Partly Cloudy FEW180 SCT250 87.1 64.9 48% 89 30.21 1023.1
20 21:51 SW 12 10.00 Partly Cloudy FEW070 FEW180 SCT250 89.1 64.9 45% 91 30.21 1022.8
20 20:51 W 6 10.00 Partly Cloudy FEW070 FEW180 SCT250 91 64.9 42% 93 30.19 1022.2
20 19:51 W 9 10.00 Partly Cloudy FEW065 SCT250 93 64 97 93 38% 95 30.18 1022.1
20 18:51 W 12 10.00 Partly Cloudy FEW060 FEW200 SCT250 93.9 63 36% 95 30.18 1022.1
20 17:51 SW 12 10.00 Mostly Cloudy FEW060 FEW200 BKN250 93.9 66 40% 97 30.19 1022.4
20 16:51 S 8 10.00 Mostly Cloudy FEW060 FEW200 BKN250 95 62.1 34% 96 30.21 1022.9
20 15:51 S 8 10.00 Mostly Cloudy FEW060 FEW180 BKN250 95 64.9 37% 98 30.23 1023.5
20 14:51 W 9 G 17 10.00 Mostly Cloudy FEW060 FEW180 BKN250 96.1 63 34% 98 30.25 1024.4
20 13:51 W 9 10.00 Mostly Cloudy FEW060 FEW180 BKN250 96.1 63 96.1 78.1 34% 98 30.27 1025.0
20 12:51 SW 8 10.00 Mostly Cloudy FEW060 FEW180 BKN250 93.9 63 36% 95 30.28 1025.4
20 11:51 SW 9 G 17 10.00 Mostly Cloudy FEW055 FEW180 BKN250 93 63 37% 94 30.3 1025.9
20 10:51 SW 8 10.00 Mostly Cloudy BKN250 88 64 45% 89 30.31 1026.3
20 09:51 SW 7 10.00 Mostly Cloudy BKN250 86 64 48% 87 30.31 1026.3
20 08:51 W 8 10.00 Mostly Cloudy FEW200 BKN250 82 64 55% 84 30.31 1026.5
20 07:51 SW 10 10.00 Mostly Cloudy FEW200 BKN250 78.1 64 78.1 71.1 62% 80 30.32 1026.6
20 06:51 SW 7 10.00 Mostly Cloudy FEW200 BKN250 73.9 63 69% 30.31 1026.3
20 05:51 SW 7 10.00 Mostly Cloudy BKN250 73 63 71% 30.31 1026.2
20 04:51 S 6 10.00 Mostly Cloudy BKN250 72 63 73% 30.3 1026.0
20 03:51 SW 8 10.00 Mostly Cloudy BKN250 73 63 71% 30.3 1025.8
20 02:51 SW 7 10.00 Partly Cloudy SCT250 73.9 63 69% 30.3 1026.0
20 01:51 SW 9 10.00 Partly Cloudy SCT250 75 63 84.9 75 66% 77 30.3 1026.1
20 00:51 SW 9 10.00 Partly Cloudy SCT250 77 62.1 60% 79 30.31 1026.3
19 23:51 SW 10 10.00 Partly Cloudy SCT250 77 62.1 60% 79 30.32 1026.6
19 22:51 S 9 10.00 Partly Cloudy SCT250 79 62.1 56% 80 30.32 1026.7
19 21:51 S 7 10.00 Partly Cloudy SCT250 81 64 57% 83 30.32 1026.5
19 20:51 SE 8 10.00 Partly Cloudy SCT250 82 60.1 47% 82 30.29 1025.6
19 19:51 S 7 10.00 Mostly Cloudy FEW050 BKN250 84.9 59 91 84.9 42% 85 30.3 1025.9
19 18:51 SE 8 10.00 Mostly Cloudy FEW050 BKN250 87.1 63 45% 88 30.29 1025.7
19 17:51 SE 9 10.00 Mostly Cloudy FEW050 BKN250 88 64.9 46% 90 30.28 1025.5
19 16:51 SE 12 10.00 Mostly Cloudy FEW050 BKN250 89.1 66.9 48% 92 30.29 1025.6
19 15:51 SE 10 G 18 10.00 Mostly Cloudy FEW050 BKN250 89.1 69.1 52% 94 30.3 1026.0
19 14:51 SE 10 10.00 Mostly Cloudy FEW050 BKN250 89.1 69.1 52% 94 30.3 1026.0
19 13:51 S 15 G 22 10.00 Mostly Cloudy FEW050 BKN250 90 69.1 93 75.9 50% 95 30.31 1026.3
19 12:51 S 5 10.00 Mostly Cloudy FEW045 BKN250 93 68 44% 97 30.32 1026.5
Date Time (edt) Wind (mph) Vis. (mi.) Weather Sky Cond. Air Dwpt Max. Min. Relative Humidity Wind Chill (°F) Heat Index (°F) altimeter (in) sea level (mb) 1 hr 3 hr 6 hr
6 hour
Temperature (ºF) Pressure Precipitation (in)